Torna al catalogo

COSMOS 1677

AttivoMilitareLEO
NORAD 15986·PAYLOAD·🇷🇺 Russia

Lanciato Aug 23, 1985 da Baikonur Cosmodrome

Loading…

Prossimi Passaggi (prossime 24 ore)

TLE

AggiornatoSource: Space-Track

Epoca: Sep 14, 2026, 11:03 UTC

1 15986U 85075A   26257.46085042 -.00000093  00000-0 -11681-5 0  9991
2 15986  64.6820  71.0677 0070179 332.9992  26.7422 13.86703934 70268

Traccia COSMOS 1677 in tempo reale con AllMySat

Download on the App Store